[[{"header":{"parameterUnit":"m.s-1","parameterCategory":1,"la1":30.2991,"la2":30.254,"lo1":-89.0895,"lo2":-89.0444,"dy":0.0017,"dx":0.0017,"nx":28,"ny":28,"refTime":"2024-08-06T09:00:00:Z","depth":0,"parameterNumber":2,"parameterNumberName":"U-component_of_WINDS"},"data":[0,0,0,0,0,0,0,0,0,0,0,0,0,0,0,0,0,0,0,0,0,0,0,0,0,0,0,0,0,0,0,0,0,0,0,0,0,0,0,0,0,0,0,0,0,0,0,0,0,0,0,0,0,0,0,0,0,0,3.0565,3.0567,0,3.0676,3.0678,3.0679,3.0618,3.0615,3.0612,3.0609,3.0729,3.0734,3.074,0,0,0,0,0,0,0,0,0,0,0,0,0,3.0308,3.0313,3.0565,3.0567,3.0568,3.0676,3.0678,3.0679,3.0619,3.0615,3.0611,3.0608,3.0727,3.0734,3.0741,0,0,0,0,0,0,0,0,0,0,0,0,0,3.042,3.0314,3.0565,3.0551,3.0551,3.0676,3.0678,3.068,3.062,3.0615,3.061,3.0606,3.0724,3.0733,3.0742,3.0889,0,0,3.077,3.0773,0,0,0,0,0,0,0,0,3.0413,3.0429,3.0552,3.0552,3.0552,3.0629,3.0631,3.075,3.0621,3.0594,3.0609,3.0604,3.0699,3.071,3.0741,3.0895,3.09,3.077,3.0776,3.078,3.0782,0,0,0,0,0,0,0,3.0406,3.0424,3.0609,3.0553,3.0554,3.0541,3.0552,3.0653,3.0671,3.0596,3.0591,3.0605,3.0699,3.0733,3.0744,3.0902,3.077,3.0778,3.0784,3.0787,3.1186,3.1191,0,0,0,0,0,0,3.0398,3.0418,3.0606,3.0613,3.047,3.055,3.0562,3.0609,3.067,3.0674,3.0609,3.0602,3.072,3.0733,3.0748,3.0927,3.078,3.0788,3.0793,3.1181,3.1187,3.1193,0,0,0,0,0,0,3.0393,3.0415,3.0601,3.0514,3.0537,3.0559,3.0612,3.0613,3.0647,3.068,3.0683,3.064,3.0716,3.0735,3.0855,3.093,3.0792,3.08,3.1175,3.1183,3.119,3.1285,0,0,0,0,0,0,3.0385,3.0414,3.0468,3.0516,3.0542,3.0705,3.0617,3.0619,3.0662,3.0654,3.071,3.0715,3.0714,3.0842,3.0864,3.094,3.0807,3.1168,3.1178,3.1187,3.1276,3.1295,3.1312,0,0,0,0,0,3.0376,3.0491,3.0471,3.0494,3.061,3.0709,3.0725,3.072,3.0668,3.0725,3.0746,3.0713,3.0918,3.0855,3.0879,3.0959,3.1163,3.1175,3.1187,3.1267,3.1291,3.1312,0,0,0,0,0,0,3.0453,3.0497,3.0475,3.0608,3.0656,3.0699,3.077,3.0745,3.081,3.08,3.0793,3.0806,3.0932,3.0957,3.0886,3.1107,3.1033,3.105,3.1086,3.1109,3.1127,3.112,3.0815,0,0,0,0,0,3.0485,3.056,3.0595,3.0709,3.0734,3.0748,3.0791,3.0784,3.0833,3.0853,3.0883,3.0934,3.101,3.1061,3.1132,3.1278,3.1292,3.1346,3.1364,3.1379,3.1395,3.1478,3.1503,3.1231,3.1231,3.1231,0,0,3.0552,3.0586,3.0634,3.0725,3.0761,3.0842,3.0765,3.0853,3.0914,3.0867,3.0983,3.1007,3.1063,3.1198,3.1259,3.1223,3.1473,3.1394,3.1405,3.1413,3.1492,3.1518,3.1541,3.1239,3.1237,3.1236,0,0,3.0717,3.0748,3.0848,3.0886,3.094,3.0949,3.0974,3.1021,3.1035,3.1151,3.1119,3.1192,3.1322,3.1365,3.1403,3.1587,3.156,3.161,3.1707,3.1788,3.181,3.1829,3.1898,3.1922,3.1625,3.1626,3.1626,0,3.0795,3.0913,3.0903,3.0994,3.1037,3.0997,3.1101,3.1138,3.1214,3.1246,3.1204,3.1369,3.1404,3.155,3.1595,3.1626,3.1656,3.1605,3.1807,3.1826,3.1844,3.1909,3.1935,3.1632,3.1631,3.163,3.163,0,3.1007,3.109,3.1164,3.1238,3.1289,3.1386,3.1394,3.1447,3.1436,3.145,3.157,3.1611,3.1692,3.1725,3.1715,3.1871,3.1848,3.1806,3.1733,3.1876,3.1938,3.1962,3.164,3.1638,3.1636,3.1635,0,0,3.1224,3.1292,3.132,3.1354,3.1412,3.1477,3.1573,3.1651,3.1698,3.1752,3.1836,3.1948,3.1911,3.1955,3.1949,3.202,3.2167,3.1971,3.1972,3.2009,3.2346,3.2379,3.2408,3.2149,3.2153,3.2157,3.2342,0,3.1395,3.1561,3.1556,3.1713,3.1791,3.1755,3.1839,3.1886,3.1903,3.1973,3.1992,3.2073,3.2016,3.2043,3.2111,3.2135,3.2236,3.2121,3.223,3.2234,3.2219,3.2439,3.2474,3.2647,3.2366,3.237,3.2373,0,3.1616,3.1678,3.1841,3.1891,3.1923,3.1999,3.2071,3.2138,3.2192,3.2199,3.2249,3.2233,3.2334,3.2256,3.2397,3.232,3.2364,3.2383,3.2389,3.2401,3.2314,3.2461,3.2701,3.2728,3.241,3.2407,3.2405,0,3.1762,3.1885,3.2,3.203,3.2089,3.2144,3.2172,3.222,3.2268,3.2332,3.2364,3.2439,3.2481,3.2541,3.2548,3.2489,3.2691,3.2612,3.2703,3.2704,3.2749,3.2747,3.3003,3.2773,3.2773,3.2772,3.2772,0,3.1955,3.2058,3.2067,3.2138,3.2252,3.2247,3.2362,3.2384,3.2428,3.2506,3.2479,3.2552,3.2554,3.263,3.2636,3.2754,3.2773,3.2784,3.2785,3.2788,3.2787,3.2819,3.2809,3.2779,3.2777,3.2776,3.2775,0,3.2138,3.2148,3.2271,3.2317,3.2331,3.2414,3.2455,3.2524,3.2538,3.2636,3.2659,3.2682,3.2771,3.2782,3.2885,3.2889,3.3033,3.3019,3.3015,3.3014,3.3105,3.3098,3.3393,3.3434,3.3174,3.3176,3.3178,0,3.2262,3.234,3.2395,3.2444,3.2474,3.2553,3.2602,3.26,3.2653,3.2721,3.2783,3.2868,3.2937,3.308,3.3108,3.3188,3.3178,3.3276,3.319,3.3192,3.3184,3.3181,3.319,3.3294,3.3297,3.3299,3.3301,0,3.2483,3.2484,3.2554,3.2627,3.2686,3.2744,3.2798,3.284,3.2846,3.2907,3.2996,3.3049,3.3155,3.3242,3.3321,3.3352,3.333,3.3327,3.3353,3.3359,3.3354,3.3362,3.3064,3.3321,3.3319,3.3318,3.3317,3.3316,3.2642,3.2711,3.2761,3.2841,3.2882,3.2934,3.3002,3.3024,3.3098,3.3183,3.3178,3.3278,3.3332,3.3436,3.3473,3.3553,3.3521,3.3558,3.3568,3.3577,3.3588,3.3339,3.3567,3.3566,3.3566,3.3565,3.3565,0,3.2864,3.2894,3.2968,3.3045,3.3109,3.3079,3.3138,3.3195,3.3282,3.3334,3.3402,3.3506,3.3591,3.3625,3.3709,3.3766,3.3759,3.3789,3.3786,3.3795,3.361,3.3581,3.3794,3.3794,3.3794,3.3794,3.3794,3.3794,3.2987,3.3103,3.3111,3.3248,3.3278,3.3374,3.3411,3.346,3.3502,3.3619,3.3689,3.371,3.3756,3.3843,3.392,3.3929,3.3962,3.3998,3.4003,3.383,3.3807,3.3785,3.3758,3.4005,3.4005,3.4181,3.4182,3.4184]},{"header":{"parameterUnit":"m.s-1","parameterCategory":1,"la1":30.2991,"la2":30.254,"lo1":-89.0895,"lo2":-89.0444,"dy":0.0017,"dx":0.0017,"nx":28,"ny":28,"refTime":"2024-08-06T09:00:00:Z","depth":0,"parameterNumber":3,"parameterNumberName":"V-component_of_WINDS"},"data":[0,0,0,0,0,0,0,0,0,0,0,0,0,0,0,0,0,0,0,0,0,0,0,0,0,0,0,0,0,0,0,0,0,0,0,0,0,0,0,0,0,0,0,0,0,0,0,0,0,0,0,0,0,0,0,0,0,0,0.2458,0.2458,0,0.2466,0.2466,0.2466,0.2427,0.2426,0.2425,0.2424,0.2435,0.2436,0.2438,0,0,0,0,0,0,0,0,0,0,0,0,0,0.2412,0.2413,0.2458,0.2458,0.2458,0.2466,0.2466,0.2466,0.2428,0.2426,0.2425,0.2424,0.2435,0.2436,0.2438,0,0,0,0,0,0,0,0,0,0,0,0,0,0.2427,0.2413,0.2458,0.244,0.2438,0.2466,0.2466,0.2466,0.2428,0.2426,0.2425,0.2423,0.2434,0.2436,0.2438,0.2484,0,0,0.2444,0.2445,0,0,0,0,0,0,0,0,0.2426,0.2429,0.2442,0.2441,0.2439,0.2444,0.2454,0.2472,0.2428,0.2432,0.2424,0.2422,0.244,0.2441,0.2446,0.2485,0.2485,0.2444,0.2446,0.2446,0.2447,0,0,0,0,0,0,0,0.2425,0.2428,0.2461,0.2443,0.2441,0.2432,0.2432,0.2457,0.2445,0.2431,0.2429,0.243,0.2438,0.2444,0.2446,0.2485,0.2444,0.2446,0.2447,0.2448,0.2562,0.2564,0,0,0,0,0,0,0.2426,0.2428,0.2461,0.2461,0.2428,0.2434,0.2435,0.2444,0.2445,0.2443,0.2431,0.2428,0.2442,0.2444,0.2446,0.2501,0.2446,0.2448,0.2449,0.2561,0.2563,0.2565,0,0,0,0,0,0,0.2425,0.243,0.246,0.2444,0.2447,0.2437,0.2448,0.2445,0.2451,0.2445,0.2443,0.244,0.2441,0.2444,0.2475,0.2501,0.2449,0.2451,0.2558,0.2561,0.2564,0.261,0,0,0,0,0,0,0.2424,0.2429,0.2446,0.2444,0.2448,0.2488,0.2449,0.2447,0.2454,0.245,0.2452,0.2451,0.2439,0.2472,0.2477,0.2503,0.2453,0.2556,0.256,0.2563,0.2607,0.2614,0.2621,0,0,0,0,0,0.2423,0.246,0.2447,0.2452,0.2469,0.249,0.2492,0.2478,0.2457,0.2474,0.247,0.245,0.2497,0.2476,0.2481,0.2508,0.2554,0.2559,0.2563,0.2603,0.2613,0.2621,0,0,0,0,0,0,0.2466,0.2459,0.2445,0.2483,0.2487,0.2483,0.2505,0.2488,0.25,0.2495,0.2478,0.2479,0.2513,0.2513,0.249,0.2552,0.2522,0.2528,0.2551,0.256,0.2568,0.2567,0.2454,0,0,0,0,0,0.248,0.2497,0.249,0.2523,0.2526,0.2515,0.2524,0.2512,0.2517,0.2519,0.2517,0.2522,0.2538,0.2549,0.2563,0.2606,0.2606,0.2627,0.2634,0.264,0.2645,0.2669,0.2678,0.2578,0.2578,0.2578,0,0,0.2509,0.2507,0.2519,0.2532,0.2534,0.2553,0.2517,0.2538,0.2552,0.2522,0.2552,0.255,0.2555,0.2593,0.2609,0.2594,0.2673,0.2645,0.265,0.2652,0.2674,0.2683,0.2692,0.2581,0.2581,0.258,0,0,0.2571,0.2571,0.2599,0.2602,0.2605,0.2597,0.2604,0.2603,0.2601,0.2629,0.2607,0.2624,0.2651,0.2656,0.2662,0.2726,0.2709,0.2731,0.277,0.2793,0.2801,0.2807,0.2831,0.284,0.2736,0.2736,0.2736,0,0.2607,0.2634,0.2616,0.2639,0.2646,0.2618,0.2647,0.265,0.2659,0.2664,0.2647,0.2681,0.2682,0.2721,0.2736,0.2741,0.2749,0.2731,0.2801,0.2807,0.2814,0.2836,0.2845,0.2739,0.2738,0.2738,0.2738,0,0.2678,0.2697,0.272,0.2727,0.2736,0.2762,0.2749,0.2761,0.2748,0.2743,0.2773,0.2774,0.2788,0.2796,0.2784,0.2833,0.2823,0.2803,0.2773,0.2826,0.2847,0.2855,0.2743,0.2742,0.2741,0.274,0,0,0.277,0.2766,0.2775,0.2778,0.278,0.2794,0.2819,0.2832,0.2842,0.2849,0.287,0.2893,0.2875,0.2882,0.287,0.289,0.2942,0.2868,0.2868,0.2883,0.2997,0.3013,0.3023,0.293,0.2931,0.2933,0.2997,0,0.2832,0.2873,0.2858,0.2901,0.2918,0.2892,0.2913,0.2917,0.2912,0.2927,0.2922,0.2939,0.2913,0.2917,0.2936,0.2932,0.2965,0.2927,0.2951,0.2952,0.2952,0.3033,0.305,0.3111,0.3005,0.3006,0.3007,0,0.291,0.2918,0.2963,0.2961,0.2968,0.2988,0.2998,0.3012,0.3016,0.3011,0.3019,0.3003,0.3028,0.2996,0.3031,0.3005,0.3014,0.3014,0.3015,0.3018,0.2984,0.304,0.3129,0.3139,0.3019,0.3018,0.3017,0,0.2973,0.2996,0.3026,0.3029,0.3027,0.3042,0.3042,0.3044,0.3053,0.3062,0.3068,0.308,0.3088,0.3098,0.3086,0.3064,0.3123,0.309,0.3121,0.3121,0.3136,0.3135,0.3229,0.3139,0.3139,0.3139,0.3139,0,0.3045,0.3073,0.3054,0.3073,0.3104,0.3086,0.3118,0.3115,0.3117,0.3135,0.3113,0.313,0.3113,0.3129,0.312,0.3151,0.3154,0.3152,0.3149,0.3155,0.3155,0.3161,0.3157,0.3141,0.3141,0.314,0.314,0,0.3122,0.311,0.314,0.3136,0.3136,0.3159,0.3156,0.3173,0.3166,0.3189,0.3194,0.3184,0.3202,0.3191,0.3209,0.3203,0.3243,0.3234,0.3242,0.324,0.3272,0.327,0.3374,0.3388,0.3288,0.3289,0.329,0,0.3169,0.319,0.3188,0.3198,0.3199,0.3216,0.3224,0.3207,0.3217,0.3223,0.324,0.3256,0.3268,0.3298,0.3293,0.3307,0.3299,0.3334,0.3301,0.3306,0.3301,0.33,0.3303,0.3342,0.3343,0.3344,0.3345,0,0.3254,0.3247,0.326,0.3271,0.3281,0.3289,0.3295,0.3305,0.3288,0.3301,0.3318,0.3328,0.3346,0.3362,0.3374,0.3375,0.3358,0.3355,0.3363,0.337,0.3374,0.3373,0.3262,0.3353,0.3352,0.3352,0.3351,0.3351,0.3318,0.3336,0.3337,0.3352,0.3355,0.3361,0.3377,0.3372,0.3386,0.34,0.3389,0.341,0.3414,0.3427,0.3431,0.3448,0.3433,0.3445,0.3448,0.3451,0.3456,0.3369,0.345,0.3449,0.3449,0.3449,0.3449,0,0.3403,0.3403,0.3416,0.3426,0.3438,0.3419,0.3424,0.3436,0.3455,0.3459,0.3471,0.3492,0.3507,0.3503,0.3517,0.3532,0.3524,0.3536,0.3536,0.3537,0.3468,0.346,0.3542,0.3542,0.3542,0.3542,0.3542,0.3542,0.3449,0.3479,0.3472,0.3503,0.3502,0.3522,0.3527,0.3533,0.3536,0.356,0.3572,0.3569,0.357,0.3584,0.3598,0.3596,0.3603,0.3619,0.3614,0.355,0.3541,0.3533,0.3525,0.362,0.362,0.3682,0.3683,0.3683]}]]